Location: Newark
(40.9833°N, 0.0333°W)
Time: 08:01:41
(UTC+00:00)

Transit 4A - Pass Details

Date: 03 November 2020
Orbit: 862 x 982 km, 66.8° (Epoch: 28 November)

Event Time Altitude Azimuth Distance (km) Brightness Sun altitude
Rises 14:23:10 0° 228° (SW) 3,590 12.4 22.7°
Reaches altitude 10° 14:25:47 10° 235° (SW) 2,666 12.2 22.3°
Maximum altitude 14:31:44 45° 307° (NW) 1,288 9.0 21.6°
Drops below altitude 10° 14:37:52 10° 19° (NNE) 2,735 9.9 20.8°
Sets 14:40:36 0° 26° (NNE) 3,691 10.5 20.4°
